カタログに戻る

STARLINK-35295

運用中通信VLEO
NORAD 66070·PAYLOAD·🇺🇸 United States

打ち上げ Oct 19, 2025 から Cape Canaveral Space Force Station

Loading…

次のパス (今後24時間)

TLE

最新Source: CelesTrak SupGP

元期: Sep 14, 2026, 15:39 UTC

1 66070C 25235N   26257.65256944 -.00030464  00000+0 -89992-3 0  2574
2 66070  53.1589  87.2384 0001271 101.0944  19.7868 15.34410910    12

AllMySatでSTARLINK-35295をリアルタイム追跡

Download on the App Store